| time (UTC) | temp C | wind direction | speed KPH | gust KPH | rain 1hr cm | rain 24hr cm | rain mn cm | humidity % | barometer mb |
| 20260503010034 | 29 | 49 | 8.0 | 14.5 | 0.00 | 0.00 | 0.00 | 28 | 1010.8 |
| 20260503004537 | 29 | 29 | 9.7 | 16.1 | 0.00 | 0.00 | 0.00 | 27 | 1010.9 |
| 20260503003038 | 29 | 53 | 8.0 | 17.7 | 0.00 | 0.00 | 0.00 | 24 | 1010.9 |
| 20260503001536 | 30 | 48 | 4.8 | 19.3 | 0.00 | 0.00 | 0.00 | 24 | 1010.9 |
| 20260503000029 | 30 | 74 | 8.0 | 24.1 | 0.00 | 0.00 | 0.00 | 24 | 1010.8 |
| 20260502234545 | 30 | 46 | 11.3 | 19.3 | 0.00 | 0.00 | 0.00 | 24 | 1011.0 |
| 20260502233035 | 30 | 40 | 11.3 | 20.9 | 0.00 | 0.00 | 0.00 | 25 | 1011.1 |
| 20260502231534 | 30 | 47 | 8.0 | 17.7 | 0.00 | 0.00 | 0.00 | 26 | 1011.3 |
| 20260502230033 | 30 | 49 | 9.7 | 17.7 | 0.00 | 0.00 | 0.00 | 26 | 1011.3 |
| 20260502224532 | 30 | 55 | 12.9 | 22.5 | 0.00 | 0.00 | 0.00 | 27 | 1011.5 |
| 20260502223032 | 30 | 51 | 6.4 | 16.1 | 0.00 | 0.00 | 0.00 | 30 | 1011.7 |
| 20260502221535 | 29 | 72 | 8.0 | 14.5 | 0.00 | 0.00 | 0.00 | 31 | 1011.8 |
| 20260502220034 | 29 | 0 | 0.0 | 12.9 | 0.00 | 0.00 | 0.00 | 31 | 1012.0 |
| 20260502214531 | 28 | 85 | 4.8 | 12.9 | 0.00 | 0.00 | 0.00 | 34 | 1012.1 |
| 20260502213042 | 28 | 73 | 6.4 | 17.7 | 0.00 | 0.00 | 0.00 | 35 | 1012.2 |
| 20260502211537 | 28 | 49 | 4.8 | 11.3 | 0.00 | 0.00 | 0.00 | 35 | 1012.3 |
| 20260502210034 | 28 | 48 | 8.0 | 17.7 | 0.00 | 0.00 | 0.00 | 36 | 1012.5 |
| 20260502204534 | 28 | 35 | 4.8 | 17.7 | 0.00 | 0.00 | 0.00 | 35 | 1012.7 |
| 20260502203039 | 27 | 328 | 4.8 | 14.5 | 0.00 | 0.00 | 0.00 | 37 | 1012.8 |
| 20260502201537 | 27 | 304 | 3.2 | 11.3 | 0.00 | 0.00 | 0.00 | 40 | 1013.1 |
| 20260502200037 | 26 | 307 | 1.6 | 12.9 | 0.00 | 0.00 | 0.00 | 41 | 1013.3 |
| 20260502194531 | 26 | 304 | 3.2 | 14.5 | 0.00 | 0.00 | 0.00 | 46 | 1013.5 |
| 20260502193046 | 25 | 291 | 6.4 | 16.1 | 0.00 | 0.00 | 0.00 | 46 | 1013.7 |
| 20260502191537 | 25 | 325 | 4.8 | 14.5 | 0.00 | 0.00 | 0.00 | 46 | 1013.9 |
| 20260502190036 | 24 | 327 | 6.4 | 14.5 | 0.00 | 0.00 | 0.00 | 50 | 1014.0 |
| 20260502184537 | 23 | 329 | 6.4 | 14.5 | 0.00 | 0.00 | 0.00 | 50 | 1014.2 |
| 20260502183035 | 23 | 315 | 4.8 | 12.9 | 0.00 | 0.00 | 0.00 | 50 | 1014.4 |
| 20260502181536 | 22 | 326 | 8.0 | 16.1 | 0.00 | 0.00 | 0.00 | 52 | 1014.2 |
| 20260502163033 | 17 | 323 | 8.0 | 17.7 | 0.00 | 0.00 | 0.00 | 65 | 1014.5 |
| 20260502161532 | 16 | 334 | 6.4 | 12.9 | 0.00 | 0.00 | 0.00 | 66 | 1014.4 |
| 20260502151536 | 15 | 5 | 6.4 | 14.5 | 0.00 | 0.00 | 0.00 | 69 | 1014.1 |
| 20260502123033 | 13 | 9 | 8.0 | 17.7 | 0.00 | 0.00 | 0.00 | 68 | 1013.5 |
| 20260502121535 | 13 | 9 | 8.0 | 14.5 | 0.00 | 0.00 | 0.00 | 68 | 1013.5 |
| 20260502114534 | 13 | 11 | 8.0 | 14.5 | 0.00 | 0.00 | 0.00 | 69 | 1013.4 |
| 20260502113039 | 13 | 12 | 8.0 | 14.5 | 0.00 | 0.00 | 0.00 | 69 | 1013.4 |
| 20260502111530 | 13 | 13 | 6.4 | 14.5 | 0.00 | 0.00 | 0.00 | 69 | 1013.2 |
| 20260502110036 | 13 | 12 | 8.0 | 14.5 | 0.00 | 0.00 | 0.00 | 69 | 1013.1 |
| 20260502104537 | 13 | 12 | 4.8 | 12.9 | 0.00 | 0.00 | 0.00 | 69 | 1013.4 |
| 20260502103034 | 13 | 12 | 4.8 | 12.9 | 0.00 | 0.00 | 0.00 | 69 | 1013.4 |
| 20260502101535 | 13 | 12 | 8.0 | 16.1 | 0.00 | 0.00 | 0.00 | 69 | 1013.2 |
| 20260502071532 | 16 | 12 | 6.4 | 14.5 | 0.00 | 0.00 | 0.00 | 63 | 1013.1 |
| 20260502070052 | 16 | 12 | 6.4 | 12.9 | 0.00 | 0.00 | 0.00 | 63 | 1013.1 |
| 20260502064530 | 16 | 12 | 6.4 | 12.9 | 0.00 | 0.00 | 0.00 | 62 | 1013.1 |
| 20260502063035 | 16 | 12 | 8.0 | 14.5 | 0.00 | 0.00 | 0.00 | 62 | 1013.1 |
| 20260502061531 | 16 | 12 | 6.4 | 12.9 | 0.00 | 0.00 | 0.00 | 64 | 1013.1 |
| 20260502060040 | 16 | 12 | 4.8 | 9.7 | 0.00 | 0.00 | 0.00 | 63 | 1013.0 |
| 20260502054540 | 16 | 12 | 6.4 | 12.9 | 0.00 | 0.00 | 0.00 | 62 | 1013.2 |
| 20260502053031 | 16 | 12 | 4.8 | 11.3 | 0.00 | 0.00 | 0.00 | 62 | 1013.1 |
| 20260502051534 | 17 | 12 | 6.4 | 11.3 | 0.00 | 0.00 | 0.00 | 61 | 1013.1 |
| 20260502050032 | 17 | 12 | 4.8 | 8.0 | 0.00 | 0.00 | 0.00 | 59 | 1013.1 |
| 20260502044531 | 17 | 12 | 4.8 | 12.9 | 0.00 | 0.00 | 0.00 | 59 | 1013.0 |
| 20260502043037 | 17 | 12 | 3.2 | 8.0 | 0.00 | 0.00 | 0.00 | 59 | 1013.1 |
| 20260502041556 | 18 | 12 | 3.2 | 8.0 | 0.00 | 0.00 | 0.00 | 58 | 1013.1 |
| 20260502040048 | 18 | 12 | 3.2 | 8.0 | 0.00 | 0.00 | 0.00 | 56 | 1013.0 |
| 20260502034533 | 18 | 12 | 4.8 | 8.0 | 0.00 | 0.00 | 0.00 | 57 | 1012.9 |
| 20260502033034 | 19 | 12 | 3.2 | 6.4 | 0.00 | 0.00 | 0.00 | 54 | 1012.8 |
| 20260502031533 | 20 | 12 | 3.2 | 6.4 | 0.00 | 0.00 | 0.00 | 53 | 1012.4 |
| 20260502030040 | 20 | 12 | 1.6 | 4.8 | 0.00 | 0.00 | 0.00 | 52 | 1012.4 |
| 20260502024532 | 21 | 12 | 3.2 | 6.4 | 0.00 | 0.00 | 0.00 | 50 | 1012.3 |
| 20260502023046 | 21 | 12 | 3.2 | 6.4 | 0.00 | 0.00 | 0.00 | 51 | 1012.3 |
| 20260502021532 | 22 | 12 | 3.2 | 6.4 | 0.00 | 0.00 | 0.00 | 51 | 1012.4 |
| 20260502020032 | 22 | 12 | 1.6 | 6.4 | 0.00 | 0.00 | 0.00 | 49 | 1012.4 |
| 20260502014538 | 23 | 12 | 3.2 | 8.0 | 0.00 | 0.00 | 0.00 | 46 | 1012.5 |
| 20260502013032 | 24 | 12 | 3.2 | 6.4 | 0.00 | 0.00 | 0.00 | 44 | 1012.7 |
| 20260502011538 | 25 | 12 | 4.8 | 11.3 | 0.00 | 0.00 | 0.00 | 42 | 1012.7 |